Weather History for KLWD - May, 2014

Change the Weather History Date:

Monday, May 12, 2014

  Actual Average Record
Temperature  
Mean Temperature 62 °F 60 °F  
Max Temperature 75 °F 70 °F 84 °F (1988)
Min Temperature 49 °F 50 °F 35 °F (2013)
Degree Days  
Heating Degree Days 3 6  
Month to date heating degree days 58 90  
Since 1 July heating degree days 6676 5985  
Cooling Degree Days 0 1  
Month to date cooling degree days 25 8  
Year to date cooling degree days 30 15  
Growing Degree Days 12 (Base 50)    
Moisture  
Dew Point 62 °F    
Average Humidity 80    
Maximum Humidity 90    
Minimum Humidity 69    
Precipitation  
Precipitation 1.87 in 0.16 in 1.87 in (2014)
Month to date precipitation 2.39 1.98  
Sea Level Pressure  
Sea Level Pressure 29.77 in    
Wind  
Wind Speed 14 mph (SSW)    
Max Wind Speed 29 mph    
Max Gust Speed 34 mph    
Visibility 7 miles    
Events Rain , Thunderstorm    
T = Trace of Precipitation, MM = Missing Value Source: NWS Daily Summary

Daily Weather History Graph

Daily Weather History Graph

Search for Another Location

Airport or City:

Trip Planner

Search our weather history database for the weather conditions in past years. The results will help you decide how hot, cold, wet, or windy it might be!

Date:

Astronomy

May. 12, 2014 Rise Set
Actual Time 6:01 AM CDT 8:22 PM CDT
Civil Twilight 5:30 AM CDT 8:53 PM CDT
Nautical Twilight 4:53 AM CDT 9:31 PM CDT
Astronomical Twilight 4:11 AM CDT 10:14 PM CDT
Moon 6:20 PM CDT (5/12) 4:42 AM CDT (5/12)
Length of Visible Light 15h 22m
Length of Day
14h 21m
Waxing Gibbous, 95% of the Moon is Illuminated
May 12
Waxing Gibbous
May 14
Full
May 21
Last Quarter
May 28
New
Jun 5
First Quarter

Hourly Weather History & Observations

Time (CDT) Temp. Dew Point Humidity Pressure Visibility Wind Dir Wind Speed Gust Speed Precip Events Conditions
12:53 AM 75.0 °F 64.0 °F 69% 29.71 in 10.0 mi SSE 9.2 mph - N/A Thunderstorm Scattered Clouds
1:31 AM 73.0 °F 64.9 °F 76% 29.74 in 10.0 mi South 6.9 mph - 0.00 in   Scattered Clouds
1:53 AM 73.0 °F 64.9 °F 76% 29.70 in 10.0 mi SE 5.8 mph - 0.00 in   Scattered Clouds
2:53 AM 73.9 °F 64.9 °F 73% 29.69 in 10.0 mi SSE 13.8 mph 20.7 mph N/A   Clear
3:53 AM 73.0 °F 66.0 °F 79% 29.66 in 10.0 mi SSE 13.8 mph 24.2 mph 0.00 in   Mostly Cloudy
4:53 AM 72.0 °F 66.0 °F 81% 29.69 in 10.0 mi South 11.5 mph 23.0 mph 0.01 in Rain Light Rain
5:29 AM 71.1 °F 66.9 °F 87% 29.75 in 6.0 mi South 18.4 mph - 0.02 in Rain , Thunderstorm Rain
5:49 AM 71.6 °F 66.2 °F 83% 29.75 in 5.0 mi South 23.0 mph 32.2 mph 0.09 in Rain Rain
5:53 AM 72.0 °F 64.9 °F 78% 29.73 in 5.0 mi SSW 27.6 mph 33.4 mph 0.09 in Rain Rain
6:53 AM 69.1 °F 61.0 °F 75% 29.69 in 10.0 mi South 8.1 mph - 0.11 in Rain , Thunderstorm Light Rain
7:19 AM 68.0 °F 62.1 °F 81% 29.77 in 9.0 mi Variable 5.8 mph - 0.01 in Rain , Thunderstorm Light Thunderstorms and Rain
7:24 AM 66.9 °F 62.1 °F 84% 29.78 in 1.8 mi Variable 5.8 mph - 0.04 in Rain , Thunderstorm Heavy Thunderstorms and Rain
7:37 AM 66.0 °F 63.0 °F 90% 29.80 in 1.0 mi West 25.3 mph 34.5 mph 0.37 in Rain , Thunderstorm Heavy Thunderstorms and Rain
7:51 AM 64.4 °F 60.8 °F 88% 29.77 in 3.0 mi NW 12.7 mph - 0.63 in Rain , Thunderstorm Light Thunderstorms and Rain
7:53 AM 64.0 °F 61.0 °F 90% 29.74 in 5.0 mi NNW 11.5 mph - 0.63 in Rain , Thunderstorm Light Thunderstorms and Rain
8:02 AM 64.0 °F 61.0 °F 90% 29.73 in 10.0 mi NNE 8.1 mph - 0.00 in Rain , Thunderstorm Light Thunderstorms and Rain
8:10 AM 64.0 °F 61.0 °F 90% 29.71 in 10.0 mi NNE 10.4 mph - 0.01 in Rain , Thunderstorm Light Rain
8:37 AM 64.0 °F 61.0 °F 90% 29.73 in 10.0 mi SE 10.4 mph - 0.01 in   Unknown
10:53 AM 69.1 °F 63.0 °F 81% 29.74 in 10.0 mi SE 10.4 mph - 0.00 in   Overcast
11:28 AM 71.1 °F 64.0 °F 78% 29.76 in 10.0 mi SE 10.4 mph - 0.00 in   Mostly Cloudy
11:46 AM 71.1 °F 64.0 °F 78% 29.76 in 10.0 mi SSE 9.2 mph - 0.00 in Thunderstorm Thunderstorm
11:53 AM 71.1 °F 64.9 °F 81% 29.73 in 10.0 mi SSE 13.8 mph - 0.00 in Thunderstorm Thunderstorm
12:00 PM 71.1 °F 64.9 °F 81% 29.77 in 9.0 mi South 12.7 mph - 0.00 in Rain , Thunderstorm Light Thunderstorms and Rain
12:18 PM 71.1 °F 66.9 °F 87% 29.76 in 2.5 mi South 12.7 mph 23.0 mph 0.11 in Rain , Thunderstorm Light Thunderstorms and Rain
12:27 PM 72.0 °F 68.0 °F 87% 29.76 in 5.0 mi South 9.2 mph - 0.15 in Rain , Thunderstorm Light Thunderstorms and Rain
12:36 PM 72.0 °F 68.0 °F 87% 29.77 in 10.0 mi South 9.2 mph - 0.16 in Rain , Thunderstorm Light Rain
12:53 PM 72.0 °F 68.0 °F 87% 29.74 in 3.0 mi SSW 9.2 mph - 0.19 in Rain , Thunderstorm Rain
1:03 PM 72.0 °F 68.0 °F 87% 29.77 in 6.0 mi SW 13.8 mph - 0.02 in Rain , Thunderstorm Light Thunderstorms and Rain
1:18 PM 72.0 °F 68.0 °F 87% 29.76 in 10.0 mi SW 10.4 mph - 0.03 in   Overcast
1:44 PM 72.0 °F 68.0 °F 87% 29.74 in 10.0 mi SSW 9.2 mph - 0.03 in Thunderstorm Thunderstorm
1:53 PM 71.1 °F 66.9 °F 87% 29.74 in 0.8 mi South 8.1 mph 19.6 mph 0.03 in Rain , Thunderstorm Heavy Thunderstorms and Rain
2:02 PM 71.1 °F 66.9 °F 87% 29.76 in 1.0 mi SSW 13.8 mph 18.4 mph 0.26 in Rain , Thunderstorm Light Thunderstorms and Rain
2:05 PM 71.1 °F 66.9 °F 87% 29.76 in 4.0 mi SSW 12.7 mph - 0.27 in Rain , Thunderstorm Light Thunderstorms and Rain
2:46 PM 69.1 °F 66.0 °F 90% 29.75 in 2.5 mi SW 8.1 mph - 0.36 in Rain , Thunderstorm Light Thunderstorms and Rain
2:53 PM 69.1 °F 66.0 °F 90% 29.74 in 1.8 mi SW 8.1 mph - 0.43 in Rain , Thunderstorm Thunderstorms and Rain
3:01 PM 69.1 °F 66.0 °F 90% 29.75 in 1.2 mi SW 11.5 mph - 0.07 in Rain , Thunderstorm Heavy Thunderstorms and Rain
3:17 PM 68.0 °F 66.0 °F 93% 29.76 in 2.5 mi SSW 13.8 mph - 0.27 in Rain , Thunderstorm Thunderstorms and Rain
3:28 PM 68.0 °F 64.9 °F 90% 29.77 in 1.8 mi SW 15.0 mph - 0.35 in Rain , Thunderstorm Thunderstorms and Rain
3:32 PM 68.0 °F 64.9 °F 90% 29.76 in 2.5 mi SW 12.7 mph - 0.36 in Rain , Thunderstorm Light Thunderstorms and Rain
3:39 PM 66.9 °F 64.0 °F 90% 29.77 in 7.0 mi WSW 20.7 mph 27.6 mph 0.37 in Rain , Thunderstorm Light Thunderstorms and Rain
3:53 PM 66.0 °F 63.0 °F 90% 29.75 in 10.0 mi West 18.4 mph 24.2 mph 0.37 in Rain Light Rain
4:53 PM 60.1 °F 57.0 °F 90% 29.79 in 10.0 mi West 15.0 mph - 0.00 in   Overcast
5:53 PM 57.0 °F 54.0 °F 89% 29.81 in 10.0 mi WNW 20.7 mph 29.9 mph N/A   Overcast
6:53 PM 55.9 °F 52.0 °F 87% 29.85 in 10.0 mi WNW 17.3 mph - N/A   Overcast
7:53 PM 54.0 °F 50.0 °F 86% 29.85 in 10.0 mi NW 18.4 mph 27.6 mph N/A   Overcast
8:53 PM 52.0 °F 46.9 °F 83% 29.91 in 10.0 mi NW 16.1 mph 21.9 mph N/A   Overcast
10:53 PM 50.0 °F 46.0 °F 86% 29.98 in 10.0 mi NNW 13.8 mph - N/A   Overcast
11:51 PM 50.0 °F 46.4 °F 87% 29.98 in 10.0 mi NW 11.5 mph - N/A   Overcast
11:53 PM 50.0 °F 46.0 °F 86% 29.97 in 10.0 mi NW 12.7 mph - N/A   Overcast